[[{"header":{"parameterUnit":"m.s-1","parameterCategory":1,"la1":30.2991,"la2":30.254,"lo1":-89.0895,"lo2":-89.0444,"dy":0.0017,"dx":0.0017,"nx":28,"ny":28,"refTime":"2025-08-13T21:00:00:Z","depth":0,"parameterNumber":2,"parameterNumberName":"U-component_of_WINDS"},"data":[0,0,0,0,0,0,0,0,0,0,0,0,0,0,0,0,0,0,0,0,0,0,0,0,0,0,0,0,0,0,0,0,0,0,0,0,0,0,0,0,0,0,0,0,0,0,0,0,0,0,0,0,0,0,0,0,0,0,1.7297,1.7299,0,1.7435,1.7437,1.7438,1.7479,1.7478,1.7477,1.7477,1.7622,1.7626,1.7631,0,0,0,0,0,0,0,0,0,0,0,0,0,1.7071,1.7075,1.7297,1.7299,1.73,1.7435,1.7437,1.7439,1.7479,1.7478,1.7477,1.7476,1.762,1.7626,1.7631,0,0,0,0,0,0,0,0,0,0,0,0,0,1.7185,1.7076,1.7297,1.7337,1.7342,1.7435,1.7437,1.7439,1.7479,1.7478,1.7477,1.7476,1.7618,1.7625,1.7632,1.7696,0,0,1.7653,1.7656,0,0,0,0,0,0,0,0,1.7179,1.7193,1.7329,1.7334,1.734,1.7439,1.7411,1.7526,1.7479,1.7427,1.7477,1.7475,1.7562,1.7573,1.7602,1.7703,1.7709,1.7653,1.7657,1.766,1.7662,0,0,0,0,0,0,0,1.7171,1.7188,1.7352,1.7331,1.7338,1.7349,1.7364,1.7433,1.7499,1.7431,1.7435,1.745,1.7565,1.7595,1.7605,1.7711,1.7653,1.7659,1.7663,1.7666,1.7873,1.7874,0,0,0,0,0,0,1.7155,1.7181,1.7347,1.7356,1.7255,1.7354,1.737,1.7408,1.7498,1.7511,1.7451,1.7452,1.7584,1.7597,1.7611,1.7692,1.766,1.7667,1.7671,1.7871,1.7873,1.7874,0,0,0,0,0,0,1.715,1.717,1.7342,1.7269,1.7292,1.7359,1.7401,1.7411,1.7442,1.7513,1.7526,1.747,1.7584,1.7601,1.7674,1.7697,1.767,1.7676,1.787,1.7872,1.7874,1.7855,0,0,0,0,0,0,1.7144,1.7168,1.7192,1.727,1.7296,1.7402,1.7402,1.7415,1.7453,1.7455,1.7534,1.7546,1.7584,1.7664,1.7681,1.7706,1.7681,1.7868,1.7871,1.7873,1.7853,1.7856,1.7858,0,0,0,0,0,1.7136,1.7182,1.7193,1.7213,1.7327,1.7403,1.7418,1.746,1.7455,1.748,1.7526,1.7544,1.7692,1.7671,1.7691,1.7718,1.7867,1.787,1.7873,1.7852,1.7855,1.7858,0,0,0,0,0,0,1.7107,1.7193,1.7206,1.7279,1.7333,1.741,1.7443,1.7462,1.752,1.7519,1.757,1.7588,1.7657,1.7696,1.767,1.7786,1.778,1.7787,1.7758,1.7761,1.7763,1.7752,1.7687,0,0,0,0,0,1.7109,1.7162,1.7235,1.7292,1.7319,1.7376,1.7411,1.7438,1.7497,1.7521,1.7572,1.7629,1.7689,1.7727,1.7786,1.7859,1.7877,1.7888,1.789,1.7892,1.7897,1.7939,1.7944,1.7885,1.7885,1.7885,0,0,1.7114,1.7167,1.7198,1.7288,1.7333,1.7388,1.7395,1.7453,1.7495,1.753,1.7602,1.7641,1.7709,1.7782,1.7817,1.7816,1.7918,1.7896,1.7896,1.7901,1.7942,1.7948,1.7953,1.7887,1.7886,1.7886,0,0,1.715,1.7196,1.7249,1.7294,1.7362,1.74,1.7413,1.7487,1.7514,1.7587,1.7614,1.7665,1.7767,1.7813,1.7851,1.7905,1.7923,1.7923,1.7934,1.7974,1.7978,1.7983,1.8002,1.8008,1.7929,1.7928,1.7928,0,1.7148,1.7231,1.7274,1.733,1.7369,1.7402,1.7456,1.7498,1.7583,1.7609,1.7607,1.7735,1.7783,1.7867,1.788,1.791,1.7926,1.7914,1.7974,1.7979,1.7984,1.8003,1.801,1.7928,1.7928,1.7928,1.7928,0,1.7225,1.7282,1.7316,1.7395,1.7438,1.7493,1.7545,1.7584,1.7608,1.7646,1.772,1.7778,1.7849,1.7872,1.7896,1.796,1.7957,1.7964,1.7959,1.7988,1.8007,1.8014,1.7927,1.7927,1.7928,1.7928,0,0,1.7246,1.7349,1.736,1.7397,1.7475,1.752,1.7577,1.7646,1.7677,1.7735,1.7784,1.7869,1.7876,1.7918,1.7948,1.7983,1.8022,1.7986,1.7988,1.799,1.8095,1.8089,1.8097,1.8035,1.8036,1.8037,1.809,0,1.7292,1.7394,1.7434,1.7517,1.7571,1.7603,1.7653,1.7706,1.7744,1.7796,1.7838,1.7897,1.7902,1.7927,1.7963,1.8009,1.8044,1.8006,1.8081,1.8083,1.8062,1.8107,1.8101,1.8147,1.8097,1.8098,1.8099,0,1.736,1.7416,1.7504,1.7575,1.7599,1.7643,1.7709,1.7758,1.782,1.7845,1.7891,1.7919,1.7981,1.7972,1.8058,1.8032,1.8065,1.8092,1.8095,1.8103,1.8092,1.8115,1.8163,1.8169,1.8111,1.811,1.8109,0,1.7366,1.7465,1.753,1.756,1.7645,1.7675,1.7712,1.7772,1.7811,1.7869,1.7895,1.796,1.7995,1.8045,1.809,1.808,1.8172,1.8167,1.8194,1.8193,1.8212,1.821,1.8264,1.8234,1.8234,1.8234,1.8234,0,1.7413,1.7465,1.7534,1.7573,1.7633,1.768,1.7738,1.7777,1.7831,1.788,1.7913,1.7958,1.8015,1.8068,1.8104,1.8169,1.8185,1.8208,1.8216,1.8204,1.8201,1.8226,1.8224,1.8236,1.8235,1.8235,1.8235,0,1.743,1.7478,1.7551,1.7625,1.7645,1.7686,1.775,1.779,1.7829,1.7891,1.7908,1.797,1.8033,1.8083,1.8167,1.8191,1.826,1.827,1.8239,1.8243,1.8267,1.8264,1.8339,1.8351,1.8313,1.8313,1.8314,0,1.7456,1.7497,1.7575,1.761,1.7646,1.7702,1.7741,1.7789,1.7828,1.7902,1.7933,1.7999,1.8055,1.8155,1.8208,1.8272,1.8284,1.8306,1.8294,1.828,1.8284,1.828,1.8285,1.8307,1.8307,1.8307,1.8308,0,1.7497,1.7519,1.7574,1.7637,1.7683,1.7735,1.7789,1.7815,1.7873,1.7916,1.7981,1.8024,1.8108,1.8174,1.8243,1.8282,1.8305,1.8311,1.8321,1.8308,1.8288,1.8299,1.8242,1.8309,1.8309,1.8309,1.8309,1.8309,1.752,1.7557,1.7618,1.7678,1.7723,1.7772,1.7814,1.7858,1.7913,1.7984,1.801,1.8077,1.8138,1.8233,1.8273,1.8327,1.8328,1.8342,1.8346,1.8348,1.8346,1.828,1.834,1.834,1.834,1.834,1.834,0,1.7562,1.7603,1.7658,1.7731,1.7778,1.7794,1.7854,1.7893,1.7951,1.8006,1.8059,1.8134,1.8197,1.8255,1.8321,1.8353,1.8365,1.8369,1.8367,1.8375,1.8342,1.8327,1.8358,1.8358,1.8358,1.8358,1.8358,1.8358,1.759,1.7655,1.7684,1.7771,1.7812,1.7877,1.7909,1.7955,1.7999,1.808,1.8133,1.817,1.8226,1.8297,1.8356,1.8371,1.8394,1.8395,1.8413,1.838,1.8378,1.8375,1.8361,1.8399,1.84,1.8442,1.8442,1.8442]},{"header":{"parameterUnit":"m.s-1","parameterCategory":1,"la1":30.2991,"la2":30.254,"lo1":-89.0895,"lo2":-89.0444,"dy":0.0017,"dx":0.0017,"nx":28,"ny":28,"refTime":"2025-08-13T21:00:00:Z","depth":0,"parameterNumber":3,"parameterNumberName":"V-component_of_WINDS"},"data":[0,0,0,0,0,0,0,0,0,0,0,0,0,0,0,0,0,0,0,0,0,0,0,0,0,0,0,0,0,0,0,0,0,0,0,0,0,0,0,0,0,0,0,0,0,0,0,0,0,0,0,0,0,0,0,0,0,0,3.7028,3.7029,0,3.7053,3.7053,3.7053,3.7059,3.7059,3.7059,3.7059,3.7079,3.708,3.7081,0,0,0,0,0,0,0,0,0,0,0,0,0,3.698,3.6981,3.7028,3.7029,3.7029,3.7053,3.7053,3.7053,3.7059,3.7059,3.7059,3.7058,3.7079,3.708,3.7081,0,0,0,0,0,0,0,0,0,0,0,0,0,3.7002,3.6981,3.7028,3.7035,3.7036,3.7053,3.7053,3.7054,3.7059,3.7059,3.7059,3.7058,3.7079,3.708,3.7081,3.7092,0,0,3.7084,3.7085,0,0,0,0,0,0,0,0,3.7001,3.7004,3.7034,3.7034,3.7035,3.7053,3.7044,3.7066,3.7059,3.705,3.7059,3.7058,3.707,3.7072,3.7077,3.7093,3.7094,3.7084,3.7085,3.7085,3.7086,0,0,0,0,0,0,0,3.6999,3.7003,3.7038,3.7034,3.7035,3.7034,3.7037,3.7048,3.7061,3.7051,3.7051,3.7054,3.7071,3.7076,3.7078,3.7094,3.7084,3.7085,3.7086,3.7086,3.7116,3.7116,0,0,0,0,0,0,3.6997,3.7001,3.7037,3.7039,3.7017,3.7035,3.7038,3.7047,3.7061,3.7063,3.7054,3.7054,3.7074,3.7076,3.7078,3.709,3.7085,3.7086,3.7087,3.7116,3.7116,3.7116,0,0,0,0,0,0,3.6996,3.7,3.7036,3.702,3.7025,3.7036,3.7046,3.7048,3.7053,3.7064,3.7066,3.7058,3.7074,3.7077,3.7088,3.7091,3.7087,3.7088,3.7116,3.7116,3.7116,3.7115,0,0,0,0,0,0,3.6995,3.7,3.7007,3.702,3.7026,3.7048,3.7046,3.7049,3.7056,3.7056,3.7068,3.7069,3.7074,3.7086,3.7089,3.7092,3.7089,3.7116,3.7116,3.7116,3.7115,3.7115,3.7115,0,0,0,0,0,3.6993,3.7005,3.7007,3.7011,3.7034,3.7048,3.7051,3.7058,3.7056,3.7061,3.7067,3.7069,3.709,3.7088,3.7091,3.7094,3.7115,3.7116,3.7116,3.7114,3.7115,3.7115,0,0,0,0,0,0,3.6991,3.7007,3.7009,3.7027,3.7036,3.7049,3.7056,3.7058,3.7067,3.7067,3.7073,3.7076,3.7086,3.7091,3.7088,3.7103,3.7102,3.7103,3.71,3.71,3.7101,3.7099,3.7089,0,0,0,0,0,3.6993,3.7004,3.7017,3.7031,3.7035,3.7045,3.7051,3.7055,3.7064,3.7068,3.7075,3.7083,3.709,3.7096,3.7104,3.7115,3.7116,3.7118,3.7119,3.7119,3.7119,3.7122,3.7123,3.7118,3.7118,3.7118,0,0,3.6996,3.7006,3.7013,3.7031,3.7038,3.7048,3.7048,3.7059,3.7065,3.7069,3.708,3.7085,3.7093,3.7104,3.7108,3.7108,3.7121,3.7119,3.7119,3.712,3.7123,3.7123,3.7123,3.7118,3.7118,3.7118,0,0,3.7007,3.7017,3.7028,3.7035,3.7046,3.7052,3.7054,3.7066,3.707,3.7081,3.7083,3.7089,3.7104,3.7109,3.7113,3.7121,3.7122,3.7123,3.7125,3.7127,3.7127,3.7128,3.7128,3.7129,3.7124,3.7124,3.7124,0,3.7009,3.7026,3.7033,3.7043,3.7049,3.7053,3.7062,3.7068,3.7081,3.7084,3.7084,3.71,3.7106,3.7116,3.7117,3.7121,3.7122,3.7122,3.7127,3.7128,3.7128,3.7128,3.7129,3.7124,3.7124,3.7124,3.7124,0,3.7026,3.7037,3.7044,3.7057,3.7063,3.7073,3.7079,3.7084,3.7087,3.7091,3.71,3.7107,3.7115,3.7118,3.7121,3.7127,3.7126,3.7126,3.7125,3.7128,3.7129,3.7129,3.7124,3.7124,3.7124,3.7124,0,0,3.7039,3.7053,3.7055,3.7059,3.707,3.7078,3.7085,3.7094,3.7097,3.7105,3.7109,3.712,3.7119,3.7124,3.7127,3.7129,3.7131,3.7129,3.7129,3.7128,3.7136,3.7135,3.7135,3.7132,3.7132,3.7132,3.7134,0,3.705,3.7066,3.7071,3.7083,3.7091,3.7093,3.7099,3.7105,3.7108,3.7113,3.7116,3.7123,3.7123,3.7125,3.7128,3.7131,3.7133,3.7131,3.7134,3.7135,3.7132,3.7136,3.7136,3.7137,3.7135,3.7135,3.7135,0,3.7065,3.7073,3.7086,3.7092,3.7096,3.7102,3.7108,3.7114,3.7119,3.7121,3.7124,3.7126,3.7131,3.7129,3.7135,3.7133,3.7135,3.7136,3.7136,3.7136,3.7135,3.7135,3.7138,3.7138,3.7136,3.7136,3.7136,0,3.707,3.7083,3.7092,3.7095,3.7104,3.7107,3.7111,3.7116,3.7119,3.7124,3.7126,3.7131,3.7133,3.7135,3.7137,3.7136,3.7142,3.7141,3.7141,3.7141,3.7143,3.7142,3.7145,3.7145,3.7145,3.7145,3.7145,0,3.7081,3.7088,3.7094,3.7099,3.7106,3.711,3.7116,3.7119,3.7123,3.7127,3.7128,3.7132,3.7134,3.7137,3.7138,3.7141,3.7143,3.7143,3.7143,3.7142,3.7142,3.7143,3.7142,3.7145,3.7145,3.7145,3.7145,0,3.7088,3.7092,3.7101,3.7108,3.7109,3.7114,3.7118,3.7122,3.7124,3.7129,3.713,3.7133,3.7136,3.7138,3.7142,3.7143,3.7145,3.7146,3.7144,3.7144,3.7144,3.7143,3.7147,3.7147,3.7147,3.7147,3.7147,0,3.7094,3.71,3.7106,3.7109,3.7112,3.7117,3.712,3.7123,3.7126,3.713,3.7132,3.7136,3.7139,3.7143,3.7144,3.7146,3.7146,3.7147,3.7147,3.7145,3.7144,3.7143,3.7143,3.7147,3.7147,3.7147,3.7147,0,3.7104,3.7105,3.711,3.7115,3.7119,3.7122,3.7126,3.7128,3.7131,3.7133,3.7137,3.7139,3.7142,3.7144,3.7146,3.7147,3.7146,3.7147,3.7147,3.7146,3.7144,3.7144,3.7143,3.7147,3.7147,3.7147,3.7147,3.7147,3.711,3.7113,3.7117,3.7122,3.7125,3.7127,3.713,3.7132,3.7135,3.7139,3.7139,3.7142,3.7143,3.7146,3.7147,3.7147,3.7147,3.7147,3.7147,3.7147,3.7146,3.7145,3.7148,3.7148,3.7148,3.7148,3.7148,0,3.7118,3.712,3.7124,3.7129,3.7131,3.7131,3.7134,3.7136,3.7139,3.714,3.7143,3.7144,3.7146,3.7147,3.7147,3.7147,3.7147,3.7147,3.7147,3.7147,3.7147,3.7147,3.7147,3.7147,3.7147,3.7147,3.7147,3.7147,3.7122,3.7127,3.7128,3.7134,3.7135,3.7139,3.714,3.7141,3.7142,3.7145,3.7146,3.7146,3.7147,3.7147,3.7147,3.7147,3.7147,3.7147,3.7147,3.7147,3.7147,3.7147,3.7146,3.7147,3.7147,3.7146,3.7146,3.7146]}]]